[[{"header":{"parameterUnit":"m.s-1","parameterCategory":1,"la1":30.2991,"la2":30.254,"lo1":-89.0895,"lo2":-89.0444,"dy":0.0017,"dx":0.0017,"nx":28,"ny":28,"refTime":"2024-12-31T09:00:00:Z","depth":0,"parameterNumber":2,"parameterNumberName":"U-component_of_WINDS"},"data":[0,0,0,0,0,0,0,0,0,0,0,0,0,0,0,0,0,0,0,0,0,0,0,0,0,0,0,0,0,0,0,0,0,0,0,0,0,0,0,0,0,0,0,0,0,0,0,0,0,0,0,0,0,0,0,0,0,0,1.3725,1.3725,0,1.3795,1.3796,1.3796,1.3823,1.3823,1.3823,1.3823,1.3895,1.3897,1.3899,0,0,0,0,0,0,0,0,0,0,0,0,0,1.3616,1.3618,1.3725,1.3725,1.3726,1.3795,1.3796,1.3797,1.3823,1.3823,1.3823,1.3823,1.3894,1.3897,1.3899,0,0,0,0,0,0,0,0,0,0,0,0,0,1.3672,1.3618,1.3724,1.3748,1.3751,1.3794,1.3796,1.3797,1.3823,1.3823,1.3823,1.3822,1.3893,1.3896,1.39,1.3925,0,0,1.3909,1.3911,0,0,0,0,0,0,0,0,1.3669,1.3676,1.3744,1.3746,1.375,1.38,1.3784,1.384,1.3823,1.3796,1.3823,1.3822,1.3864,1.3869,1.3883,1.3929,1.3932,1.391,1.3911,1.3913,1.3914,0,0,0,0,0,0,0,1.3665,1.3673,1.3752,1.3745,1.3748,1.3756,1.3763,1.3795,1.3831,1.3798,1.38,1.3808,1.3865,1.388,1.3885,1.3933,1.3909,1.3912,1.3914,1.3915,1.4005,1.4006,0,0,0,0,0,0,1.3657,1.367,1.375,1.3754,1.3708,1.3758,1.3766,1.3784,1.383,1.3837,1.3808,1.3809,1.3875,1.3881,1.3888,1.3922,1.3913,1.3916,1.3918,1.4005,1.4006,1.4006,0,0,0,0,0,0,1.3655,1.3664,1.3747,1.3713,1.3724,1.376,1.378,1.3786,1.38,1.3838,1.3845,1.3817,1.3875,1.3883,1.3916,1.3925,1.3917,1.392,1.4004,1.4005,1.4006,1.399,0,0,0,0,0,0,1.3651,1.3663,1.3672,1.3713,1.3726,1.3774,1.378,1.3787,1.3806,1.3807,1.3848,1.3854,1.3875,1.3911,1.3919,1.3929,1.3923,1.4004,1.4005,1.4006,1.399,1.399,1.399,0,0,0,0,0,1.3647,1.3665,1.3673,1.3682,1.3738,1.3774,1.3782,1.3806,1.3806,1.3817,1.3841,1.3853,1.3923,1.3914,1.3924,1.3934,1.4003,1.4004,1.4005,1.399,1.399,1.399,0,0,0,0,0,0,1.3624,1.367,1.368,1.3711,1.3738,1.3779,1.3792,1.3805,1.3833,1.3834,1.3862,1.3871,1.3902,1.3922,1.3912,1.3963,1.3964,1.3967,1.3949,1.3949,1.3949,1.3944,1.3925,0,0,0,0,0,1.3623,1.3648,1.3687,1.3711,1.3724,1.3756,1.3772,1.3789,1.3819,1.3831,1.3857,1.3886,1.3915,1.3933,1.3962,1.3993,1.4003,1.4005,1.4005,1.4005,1.4008,1.4027,1.4029,1.401,1.401,1.401,0,0,1.362,1.3648,1.3662,1.3707,1.373,1.3756,1.3766,1.3792,1.3812,1.3835,1.3868,1.3889,1.3923,1.3956,1.3972,1.3973,1.4015,1.4007,1.4006,1.4009,1.4029,1.403,1.4032,1.401,1.401,1.401,0,0,1.3628,1.3651,1.3674,1.3698,1.3733,1.3755,1.376,1.38,1.3814,1.3848,1.3866,1.3891,1.3939,1.3963,1.3982,1.4002,1.4014,1.401,1.4011,1.403,1.4031,1.4033,1.4041,1.4043,1.4012,1.4012,1.4012,0,1.3619,1.3659,1.3684,1.3711,1.373,1.3753,1.3777,1.3798,1.3841,1.3855,1.3856,1.3919,1.3943,1.3983,1.3988,1.4002,1.401,1.4005,1.4029,1.4031,1.4032,1.404,1.4043,1.4012,1.4012,1.4012,1.4012,0,1.3648,1.3675,1.3689,1.3731,1.3752,1.3777,1.3807,1.3826,1.3841,1.3863,1.3898,1.3928,1.3964,1.3975,1.3989,1.4017,1.4017,1.4023,1.4025,1.4033,1.4041,1.4044,1.4011,1.4011,1.4011,1.4011,0,0,1.3642,1.3698,1.3703,1.3723,1.3765,1.3787,1.3813,1.3849,1.3865,1.3894,1.3918,1.396,1.3966,1.3987,1.4005,1.4022,1.4037,1.4026,1.4028,1.4028,1.4071,1.4066,1.4069,1.4045,1.4046,1.4047,1.4068,0,1.3656,1.3704,1.3728,1.3766,1.3793,1.3815,1.3839,1.3868,1.3889,1.3915,1.3939,1.3969,1.3975,1.3988,1.4005,1.4031,1.4046,1.403,1.4069,1.407,1.4059,1.4073,1.4067,1.4086,1.4071,1.4072,1.4072,0,1.3678,1.3707,1.3748,1.3789,1.3801,1.3821,1.3856,1.3881,1.3915,1.3929,1.3954,1.3972,1.4002,1.4002,1.4045,1.4034,1.4051,1.4067,1.4068,1.4072,1.4071,1.4078,1.4092,1.4095,1.4077,1.4077,1.4076,0,1.367,1.372,1.3752,1.3768,1.3815,1.383,1.385,1.3884,1.3904,1.3935,1.3949,1.3983,1.4002,1.4028,1.4056,1.4053,1.4096,1.4098,1.411,1.4109,1.4118,1.4117,1.4135,1.4129,1.4129,1.4129,1.4129,0,1.3683,1.3707,1.3749,1.3768,1.3796,1.3825,1.3853,1.3875,1.3905,1.393,1.3952,1.3975,1.4009,1.4037,1.4059,1.4092,1.41,1.4113,1.4119,1.4111,1.411,1.4123,1.4123,1.4129,1.4129,1.4129,1.4129,0,1.3679,1.3708,1.3743,1.3786,1.3797,1.3817,1.3854,1.3874,1.3897,1.3928,1.3937,1.3974,1.4008,1.4038,1.4082,1.4097,1.4131,1.4138,1.412,1.4123,1.4133,1.4132,1.4161,1.4167,1.4156,1.4156,1.4156,0,1.3685,1.3704,1.3749,1.3767,1.3788,1.3817,1.3838,1.3868,1.3889,1.393,1.3945,1.3981,1.4011,1.4064,1.4095,1.413,1.4138,1.4146,1.4143,1.4136,1.4139,1.4138,1.414,1.4146,1.4146,1.4146,1.4146,0,1.3693,1.3707,1.3736,1.3771,1.3795,1.3824,1.3854,1.3868,1.3903,1.3926,1.3961,1.3984,1.4031,1.4066,1.4105,1.4128,1.4143,1.4147,1.4151,1.4144,1.4133,1.414,1.412,1.4145,1.4146,1.4146,1.4146,1.4146,1.3695,1.3714,1.3749,1.3781,1.3807,1.3834,1.3855,1.3882,1.3911,1.3951,1.3968,1.4004,1.4039,1.4093,1.4115,1.4145,1.4147,1.4154,1.4156,1.4157,1.4156,1.4128,1.4152,1.4152,1.4152,1.4152,1.4152,0,1.3705,1.3729,1.3758,1.3799,1.3825,1.3838,1.3872,1.3892,1.3924,1.3955,1.3985,1.4026,1.4061,1.4096,1.4133,1.415,1.4158,1.4159,1.4158,1.4163,1.4151,1.4144,1.4152,1.4152,1.4152,1.4152,1.4152,1.4152,1.3713,1.3746,1.3764,1.381,1.3835,1.387,1.3888,1.3914,1.394,1.3985,1.4014,1.4036,1.407,1.411,1.4143,1.4153,1.4166,1.4164,1.4176,1.4164,1.4164,1.4163,1.4156,1.4167,1.4167,1.4185,1.4186,1.4186]},{"header":{"parameterUnit":"m.s-1","parameterCategory":1,"la1":30.2991,"la2":30.254,"lo1":-89.0895,"lo2":-89.0444,"dy":0.0017,"dx":0.0017,"nx":28,"ny":28,"refTime":"2024-12-31T09:00:00:Z","depth":0,"parameterNumber":3,"parameterNumberName":"V-component_of_WINDS"},"data":[0,0,0,0,0,0,0,0,0,0,0,0,0,0,0,0,0,0,0,0,0,0,0,0,0,0,0,0,0,0,0,0,0,0,0,0,0,0,0,0,0,0,0,0,0,0,0,0,0,0,0,0,0,0,0,0,0,0,-5.1152,-5.1155,0,-5.1354,-5.1356,-5.1358,-5.1359,-5.1357,-5.1354,-5.1351,-5.156,-5.1568,-5.1576,0,0,0,0,0,0,0,0,0,0,0,0,0,-5.0772,-5.0779,-5.1152,-5.1155,-5.1157,-5.1353,-5.1356,-5.1359,-5.136,-5.1356,-5.1353,-5.135,-5.1558,-5.1567,-5.1577,0,0,0,0,0,0,0,0,0,0,0,0,0,-5.0952,-5.0782,-5.1152,-5.1181,-5.1186,-5.1353,-5.1356,-5.136,-5.136,-5.1356,-5.1352,-5.1349,-5.1554,-5.1566,-5.1578,-5.173,0,0,-5.1615,-5.162,0,0,0,0,0,0,0,0,-5.0942,-5.0966,-5.1174,-5.1179,-5.1185,-5.1327,-5.1299,-5.1484,-5.1361,-5.1294,-5.1351,-5.1347,-5.1486,-5.1503,-5.155,-5.174,-5.1749,-5.1616,-5.1623,-5.1628,-5.1631,0,0,0,0,0,0,0,-5.0929,-5.0957,-5.1232,-5.1177,-5.1184,-5.1186,-5.1207,-5.1334,-5.141,-5.13,-5.13,-5.1324,-5.1488,-5.1538,-5.1555,-5.1752,-5.1615,-5.1626,-5.1633,-5.1638,-5.2079,-5.2084,0,0,0,0,0,0,-5.091,-5.0947,-5.1226,-5.1238,-5.1051,-5.1196,-5.1219,-5.1286,-5.1408,-5.1423,-5.1327,-5.1323,-5.152,-5.1541,-5.1562,-5.175,-5.1628,-5.1639,-5.1646,-5.2075,-5.208,-5.2085,0,0,0,0,0,0,-5.0902,-5.0935,-5.1217,-5.1093,-5.1129,-5.1206,-5.1281,-5.1292,-5.1342,-5.1429,-5.1443,-5.1364,-5.1518,-5.1545,-5.1689,-5.1757,-5.1644,-5.1655,-5.207,-5.2077,-5.2083,-5.2126,0,0,0,0,0,0,-5.0891,-5.0932,-5.099,-5.1094,-5.1135,-5.134,-5.1285,-5.1298,-5.1362,-5.1359,-5.1467,-5.1481,-5.1517,-5.1671,-5.1701,-5.1772,-5.1665,-5.2064,-5.2073,-5.2081,-5.2119,-5.2133,-5.2146,0,0,0,0,0,-5.0878,-5.0994,-5.0993,-5.1026,-5.1209,-5.1343,-5.1367,-5.1405,-5.1367,-5.1427,-5.1483,-5.1478,-5.1745,-5.1685,-5.1719,-5.1795,-5.206,-5.207,-5.208,-5.2113,-5.213,-5.2145,0,0,0,0,0,0,-5.0896,-5.1008,-5.1008,-5.116,-5.1242,-5.1343,-5.1419,-5.1422,-5.1517,-5.151,-5.1553,-5.1578,-5.1721,-5.1772,-5.1704,-5.195,-5.1898,-5.1915,-5.1911,-5.1929,-5.1942,-5.1927,-5.1675,0,0,0,0,0,-5.0917,-5.1016,-5.1109,-5.1235,-5.1276,-5.1341,-5.1401,-5.1423,-5.1509,-5.1544,-5.1611,-5.1696,-5.18,-5.1867,-5.1967,-5.2126,-5.2151,-5.2195,-5.2208,-5.2219,-5.2234,-5.2325,-5.2346,-5.2119,-5.2119,-5.2119,0,0,-5.0963,-5.1037,-5.1097,-5.1241,-5.1307,-5.141,-5.137,-5.148,-5.1558,-5.1561,-5.1701,-5.1753,-5.1852,-5.2004,-5.2075,-5.2051,-5.2302,-5.2232,-5.224,-5.2249,-5.2337,-5.2359,-5.2378,-5.2126,-5.2125,-5.2124,0,0,-5.11,-5.1164,-5.1278,-5.1345,-5.1445,-5.1488,-5.1515,-5.1616,-5.1651,-5.1792,-5.1798,-5.1891,-5.2067,-5.2138,-5.2197,-5.2363,-5.2363,-5.2394,-5.2466,-5.2553,-5.2571,-5.2587,-5.2649,-5.267,-5.2409,-5.2409,-5.2409,0,-5.1144,-5.1299,-5.1335,-5.1447,-5.1511,-5.1519,-5.1636,-5.1699,-5.1828,-5.1873,-5.1844,-5.2067,-5.2134,-5.2304,-5.2345,-5.2392,-5.2426,-5.2382,-5.2565,-5.2582,-5.2598,-5.2657,-5.2679,-5.2412,-5.2412,-5.2411,-5.2411,0,-5.135,-5.1457,-5.1537,-5.166,-5.1734,-5.1847,-5.1902,-5.1973,-5.1989,-5.2035,-5.218,-5.226,-5.2377,-5.2419,-5.2436,-5.2593,-5.2576,-5.2556,-5.2505,-5.2622,-5.2678,-5.2701,-5.2417,-5.2416,-5.2415,-5.2414,0,0,-5.1503,-5.1646,-5.1675,-5.1732,-5.1845,-5.1929,-5.2044,-5.2158,-5.2219,-5.2307,-5.2406,-5.2556,-5.2539,-5.2606,-5.2631,-5.2708,-5.2837,-5.268,-5.2683,-5.2707,-5.3018,-5.3033,-5.3059,-5.2837,-5.2842,-5.2845,-5.3011,0,-5.1652,-5.1855,-5.1893,-5.207,-5.2171,-5.2181,-5.2282,-5.2362,-5.2409,-5.2503,-5.2554,-5.2661,-5.2629,-5.267,-5.2747,-5.2805,-5.29,-5.2794,-5.2931,-5.2936,-5.2907,-5.3088,-5.3103,-5.3255,-5.3033,-5.3036,-5.3039,0,-5.1854,-5.1948,-5.2135,-5.2236,-5.228,-5.2369,-5.2479,-5.2568,-5.266,-5.2689,-5.2765,-5.2782,-5.2903,-5.2846,-5.3016,-5.2942,-5.3001,-5.3038,-5.3045,-5.306,-5.2995,-5.3109,-5.3304,-5.3328,-5.3074,-5.3071,-5.3068,0,-5.1949,-5.2122,-5.2257,-5.2306,-5.2427,-5.249,-5.2543,-5.2632,-5.2699,-5.2795,-5.284,-5.2948,-5.3008,-5.3093,-5.314,-5.3093,-5.3307,-5.3253,-5.3335,-5.3334,-5.338,-5.3377,-5.3589,-5.3416,-5.3416,-5.3415,-5.3415,0,-5.2113,-5.2228,-5.2302,-5.2385,-5.2515,-5.2558,-5.2686,-5.2738,-5.2818,-5.2913,-5.2928,-5.3018,-5.3073,-5.3171,-5.3208,-5.3344,-5.3371,-5.3398,-5.3407,-5.3398,-5.3395,-5.3438,-5.3429,-5.3421,-5.342,-5.3419,-5.3418,0,-5.2241,-5.2295,-5.2443,-5.2546,-5.2574,-5.2666,-5.2754,-5.2837,-5.2884,-5.3004,-5.3035,-5.3109,-5.3225,-5.328,-5.3424,-5.3449,-5.3604,-5.3605,-5.3572,-5.3576,-5.3656,-5.3648,-5.3904,-5.3941,-5.3742,-5.3744,-5.3746,0,-5.2342,-5.2431,-5.2543,-5.2608,-5.2663,-5.2767,-5.2836,-5.2882,-5.2953,-5.3067,-5.3137,-5.3253,-5.3349,-5.3535,-5.3602,-5.3713,-5.3718,-5.38,-5.3734,-5.3723,-5.3721,-5.3716,-5.3726,-5.3812,-5.3814,-5.3815,-5.3817,0,-5.2517,-5.254,-5.2638,-5.2747,-5.2829,-5.2917,-5.3003,-5.3055,-5.3116,-5.3196,-5.3315,-5.3389,-5.3536,-5.3653,-5.3769,-5.3825,-5.3833,-5.3837,-5.3862,-5.3854,-5.3832,-5.3847,-5.3606,-5.3831,-5.3829,-5.3828,-5.3827,-5.3827,-5.2637,-5.2717,-5.2809,-5.2918,-5.2988,-5.3069,-5.3152,-5.321,-5.331,-5.3433,-5.3455,-5.3582,-5.3675,-5.3831,-5.3892,-5.3993,-5.3974,-5.401,-5.402,-5.4029,-5.4034,-5.3815,-5.4014,-5.4014,-5.4014,-5.4013,-5.4013,0,-5.2814,-5.2874,-5.2974,-5.3095,-5.3182,-5.318,-5.3276,-5.3349,-5.3461,-5.3547,-5.3641,-5.3779,-5.3893,-5.397,-5.4085,-5.4152,-5.4158,-5.4181,-5.4177,-5.419,-5.4043,-5.401,-5.4174,-5.4174,-5.4174,-5.4174,-5.4174,-5.4174,-5.2916,-5.3053,-5.3087,-5.3259,-5.3319,-5.3443,-5.3498,-5.3574,-5.3643,-5.3796,-5.389,-5.394,-5.4023,-5.4145,-5.425,-5.427,-5.4313,-5.4336,-5.4356,-5.4217,-5.42,-5.4184,-5.4154,-5.4345,-5.4345,-5.4495,-5.4497,-5.4498]}]]